CW3999 Weather Reports


Display with metric or nautical units.
time (UTC)temp
F
wind
direction
speed
MPH
gust
MPH
rain 1hr
in
rain 24hr
in
rain mn
in
humidity
%
barometer
mb
20260504160432 60 315 0.0 0.0 0.00 0.00 0.00 100 1011.8
20260504150430 58 315 0.0 0.0 0.00 0.00 0.00 100 1011.4
20260504140904 54 261 0.0 0.0 0.00 0.00 0.00 100 1010.7
20260504140401 54 261 0.0 0.0 0.00 0.00 0.00 100 1010.7
20260504130403 53 261 0.0 0.0 0.00 0.00 0.00 100 1009.8
20260504110329 58 261 0.0 0.0 0.00 0.00 0.00 100 1007.9
20260504100303 60 261 0.0 0.0 0.00 0.00 0.00 33 1007.1
20260504081730 66 261 0.0 0.0 0.00 0.00 0.00 55 1006.5
20260504081230 66 261 0.0 0.0 0.00 0.00 0.00 55 1006.5
20260504080730 67 261 0.0 0.0 0.00 0.00 0.00 55 1006.4
20260504080229 67 261 0.0 0.0 0.00 0.00 0.00 55 1006.5
20260504070222 70 261 0.0 0.0 0.00 0.00 0.00 52 1006.2
20260504050702 75 261 0.0 0.0 0.00 0.00 0.00 45 1005.8
20260504050202 75 261 0.0 0.0 0.00 0.00 0.00 44 1005.7
20260504044703 76 261 0.0 0.0 0.00 0.00 0.00 42 1005.7
20260504044204 76 261 0.0 0.0 0.00 0.00 0.00 44 1005.7
20260504043703 77 261 0.0 0.0 0.00 0.00 0.00 42 1005.7
20260504043203 77 261 0.0 0.0 0.00 0.00 0.00 43 1005.6
20260504042703 77 261 0.0 0.0 0.00 0.00 0.00 44 1005.7
20260504042204 78 261 0.0 0.0 0.00 0.00 0.00 43 1005.7
20260504041203 78 261 0.0 0.0 0.00 0.00 0.00 41 1005.6
20260504040702 78 261 0.0 0.0 0.00 0.00 0.00 40 1005.5
20260504040201 78 261 0.0 0.0 0.00 0.00 0.00 40 1005.4
20260504035702 79 261 0.0 0.0 0.00 0.00 0.00 39 1005.4
20260504035202 79 261 0.0 0.0 0.00 0.00 0.00 39 1005.3
20260504034702 80 261 0.0 0.0 0.00 0.00 0.00 39 1005.3
20260504034204 80 261 0.0 0.0 0.00 0.00 0.00 38 1005.2
20260504033702 81 261 0.0 0.0 0.00 0.00 0.00 38 1005.0
20260504032703 82 261 0.0 0.0 0.00 0.00 0.00 37 1004.9
20260504032204 82 261 0.0 0.0 0.00 0.00 0.00 37 1004.9
20260504031703 83 261 0.0 0.0 0.00 0.00 0.00 36 1004.8
20260504031203 84 261 0.0 0.0 0.00 0.00 0.00 35 1004.8
20260504030702 84 261 0.0 0.0 0.00 0.00 0.00 34 1004.8
20260504030201 85 258 0.0 0.0 0.00 0.00 0.00 34 1004.8
20260504025701 85 258 0.0 0.0 0.00 0.00 0.00 34 1004.7
20260504024702 85 258 0.0 0.0 0.00 0.00 0.00 33 1004.7
20260504024201 86 258 0.0 0.0 0.00 0.00 0.00 32 1004.6
20260504023704 86 258 0.0 0.0 0.00 0.00 0.00 32 1004.6
20260504022704 86 252 0.0 0.0 0.00 0.00 0.00 30 1004.6
20260504022203 86 252 0.0 0.0 0.00 0.00 0.00 29 1004.5
20260504021704 86 252 0.0 0.0 0.00 0.00 0.00 29 1004.6
20260504021202 87 252 0.0 0.0 0.00 0.00 0.00 31 1004.5
20260504020704 87 252 0.0 0.0 0.00 0.00 0.00 30 1004.6
20260504020204 87 252 0.0 0.0 0.00 0.00 0.00 30 1004.6
20260504015701 87 252 0.0 0.0 0.00 0.00 0.00 31 1004.6
20260504015203 87 252 0.0 0.0 0.00 0.00 0.00 31 1004.6
20260504014702 87 252 0.0 0.0 0.00 0.00 0.00 31 1004.7
20260504014202 87 252 0.0 0.0 0.00 0.00 0.00 29 1004.7
20260504013203 87 252 0.0 0.0 0.00 0.00 0.00 30 1004.7
20260504012704 87 252 0.0 0.0 0.00 0.00 0.00 31 1004.8
20260504012204 87 252 0.0 0.0 0.00 0.00 0.00 31 1004.8
20260504011706 87 252 0.0 0.0 0.00 0.00 0.00 29 1004.8
20260504011204 88 252 0.0 0.0 0.00 0.00 0.00 32 1004.9
20260504010703 88 252 0.0 0.0 0.00 0.00 0.00 30 1004.9
20260504010202 88 252 0.0 0.0 0.00 0.00 0.00 29 1005.0
20260504005705 89 252 0.0 0.0 0.00 0.00 0.00 34 1004.9
20260504005204 89 252 0.0 0.0 0.00 0.00 0.00 30 1005.0
20260504004704 89 252 0.0 0.0 0.00 0.00 0.00 30 1005.1
20260504004204 89 252 0.0 0.0 0.00 0.00 0.00 28 1005.2
20260504003203 89 252 0.0 0.0 0.00 0.00 0.00 25 1005.2
20260504002703 89 252 0.0 0.0 0.00 0.00 0.00 28 1005.2
20260504002204 89 252 0.0 0.0 0.00 0.00 0.00 26 1005.2
20260504001703 89 252 0.0 0.0 0.00 0.00 0.00 30 1005.2
20260504001204 89 252 0.0 0.0 0.00 0.00 0.00 30 1005.2
20260504000204 89 252 0.0 0.0 0.00 0.00 0.00 28 1005.2
20260503235658 89 252 0.0 0.0 0.00 0.00 0.00 27 1005.3
20260503235150 89 252 0.0 0.0 0.00 0.00 0.00 28 1005.3
20260503233630 89 251 0.0 0.0 0.00 0.00 0.00 25 1005.5
20260503233128 89 251 0.0 0.0 0.00 0.00 0.00 28 1005.6
20260503232130 89 251 0.0 0.0 0.00 0.00 0.00 28 1005.6
20260503231130 90 251 0.0 0.0 0.00 0.00 0.00 30 1005.7
20260503230630 90 251 0.0 0.0 0.00 0.00 0.00 28 1005.7
20260503230126 90 251 0.0 0.0 0.00 0.00 0.00 27 1005.8
20260503225622 90 251 0.0 0.0 0.00 0.00 0.00 29 1006.0
20260503224104 91 251 0.0 0.0 0.00 0.00 0.00 26 1006.2
20260503222604 90 251 0.0 0.0 0.00 0.00 0.00 26 1006.4
20260503222103 89 251 0.0 0.0 0.00 0.00 0.00 28 1006.5
20260503221603 89 251 0.0 0.0 0.00 0.00 0.00 28 1006.6
20260503220603 89 251 0.0 0.0 0.00 0.00 0.00 28 1006.7
20260503220103 89 251 0.0 0.0 0.00 0.00 0.00 33 1006.8
20260503215604 89 251 0.0 0.0 0.00 0.00 0.00 30 1006.8
20260503215103 88 241 0.0 0.0 0.00 0.00 0.00 32 1007.0
20260503214603 88 241 0.0 0.0 0.00 0.00 0.00 32 1007.0
20260503214103 89 241 0.0 0.0 0.00 0.00 0.00 31 1007.1
20260503213600 89 241 0.0 0.0 0.00 0.00 0.00 37 1007.1
20260503213101 88 241 0.0 0.0 0.00 0.00 0.00 35 1007.1
20260503212601 88 241 0.0 0.0 0.00 0.00 0.00 36 1007.2
20260503212100 88 237 0.0 0.0 0.00 0.00 0.00 36 1007.2
20260503211602 88 236 0.0 0.0 0.00 0.00 0.00 35 1007.3
20260503211103 87 236 0.0 0.0 0.00 0.00 0.00 32 1007.4
20260503210604 87 236 0.0 0.0 0.00 0.00 0.00 36 1007.5
20260503210103 86 236 0.0 0.0 0.00 0.00 0.00 37 1007.6
20260503205601 87 236 0.0 0.0 0.00 0.00 0.00 33 1007.6
20260503205102 87 236 0.0 0.0 0.00 0.00 0.00 42 1007.7
20260503204601 86 236 0.0 0.0 0.00 0.00 0.00 39 1007.8
20260503204101 85 236 0.0 0.0 0.00 0.00 0.00 46 1007.8
20260503203602 85 236 0.0 0.0 0.00 0.00 0.00 43 1007.9
20260503202602 84 236 0.0 0.0 0.00 0.00 0.00 44 1008.1
20260503202101 84 236 0.0 0.0 0.00 0.00 0.00 44 1008.1
20260503201602 84 236 0.0 0.0 0.00 0.00 0.00 47 1008.2
20260503201107 84 236 0.0 0.0 0.00 0.00 0.00 45 1008.2
20260503200602 84 236 0.0 0.0 0.00 0.00 0.00 45 1008.3
20260503200104 84 236 0.0 0.0 0.00 0.00 0.00 45 1008.4
20260503195603 83 236 0.0 0.0 0.00 0.00 0.00 48 1008.5
20260503195103 82 236 0.0 0.0 0.00 0.00 0.00 45 1008.6
20260503194104 82 236 0.0 0.0 0.00 0.00 0.00 46 1008.6
20260503193101 82 236 0.0 0.0 0.00 0.00 0.00 46 1008.7
20260503192602 83 236 0.0 0.0 0.00 0.00 0.00 47 1008.8
20260503192103 83 236 0.0 0.0 0.00 0.00 0.00 48 1008.8
20260503191601 81 236 0.0 0.0 0.00 0.00 0.00 48 1008.9
20260503191102 81 236 0.0 0.0 0.00 0.00 0.00 47 1008.9
20260503190601 80 236 0.0 0.0 0.00 0.00 0.00 47 1009.0
20260503190103 80 236 0.0 0.0 0.00 0.00 0.00 46 1009.0
20260503185053 79 236 0.0 0.0 0.00 0.00 0.00 46 1009.1
20260503184555 79 236 0.0 0.0 0.00 0.00 0.00 47 1009.2
20260503184051 78 236 0.0 0.0 0.00 0.00 0.00 49 1009.3
20260503183539 78 236 0.0 0.0 0.00 0.00 0.00 47 1009.4
20260503183037 77 236 0.0 0.0 0.00 0.00 0.00 48 1009.5
20260503181532 76 235 0.0 0.0 0.00 0.00 0.00 50 1009.6
20260503181031 76 235 0.0 0.0 0.00 0.00 0.00 49 1009.6
20260503180531 75 235 0.0 0.0 0.00 0.00 0.00 49 1009.6
20260503180030 75 235 0.0 0.0 0.00 0.00 0.00 50 1009.7
20260503175031 75 235 0.0 0.0 0.00 0.00 0.00 51 1009.8
20260503174530 74 232 0.0 0.0 0.00 0.00 0.00 50 1009.8
20260503174030 74 225 0.0 0.0 0.00 0.00 0.00 51 1009.8
20260503173532 74 211 0.0 0.0 0.00 0.00 0.00 51 1009.9
20260503173018 74 211 0.0 0.0 0.00 0.00 0.00 51 1009.9
20260503172520 73 211 0.0 0.0 0.00 0.00 0.00 51 1009.9
20260503172001 73 212 0.0 0.0 0.00 0.00 0.00 48 1010.0
20260503171008 72 212 0.0 0.0 0.00 0.00 0.00 49 1010.0
20260503170504 71 212 0.0 0.0 0.00 0.00 0.00 48 1010.0